Weather in Lendery-1

Russia / Republic of Karelia     63°24′54″N   31°11′53″E
temp.,
°C
wind,
m/s
gust,
m/s
humid.,
%
clouds,
%
prec.,
mm/h
press.,
hPa
HPBL,
m
27 february, sat
sat2700:00−1nnw2796100 0.0 1004327
03:00−2nnw3894100 0.1 1007410
06:00−3nnw3895100 0.1 1008335
09:00−5nnw3109495 0.1 1012316
12:00−2n489079 0.0 1014643
15:00−1nnw369188 0.1 1017468
18:00−4nw249490 0.0 101799
21:00−7wnw229757 0.0 101721
28 february, sun
sun2800:00−7sw229775 0.0 101534
03:00−6ssw269588 0.0 1013173
06:00−4ssw3797100 0.6 1010281
09:00−5sw2498100 0.8 1011138
12:00−1w249798 0.1 1012227
15:00+1w379893 0.1 1014434
18:000wnw3894100 0.0 1013504
21:00−3w269886 0.0 1015164
1 march, mon
mon100:00−1wsw3697100 0.0 1014330
03:00+1wsw4998100 0.0 1014465
06:00+1w51095100 0.0 1011547
09:00+1w51294100 0.0 1010728
12:00+1w61397100 0.0 1008690
15:00+1w61399100 0.6 1007742
18:00+1wnw5118997 0.1 1006847
21:00+1w5138998 0.1 1005822
2 march, tue
tue200:00−2wnw4148872 0.0 1004756
03:00−2wnw5158539 0.0 1004694
06:00−3wnw6158658 0.0 10041010
09:00−2nw6158178 0.1 10081112
12:00−1nw615740 0.0 10111511
15:000nw612800 0.0 10121174
18:00−2wnw4138411 0.0 1013656
21:00−4wnw413887 0.0 1014501
3 march, wed
wed300:00−5wnw410910 0.0 1015299
03:00−5wnw410942 0.0 1016297
06:00−7wnw399519 0.0 1017243
09:00−7wnw269513 0.0 1017138
12:00−4w359123 0.0 1016273
15:00−2wsw489061 0.0 1013382
18:00−2sw51293100 0.0 1009498
21:000wsw61394100 0.6 1004866